Time,TemperatureF,DewpointF,PressureIn,WindDirection,WindDirectionDegrees,WindSpeedMPH,WindSpeedGustMPH,Humidity,HourlyPrecipIn,Conditions,Clouds,dailyrainin,SoftwareType,DateUTC
2013-01-29 00:03:00,41.0,40.0,30.06,WSW,253,0.0,5.0,97,0.02,,,0.39,,2013-01-29 05:03:00,
2013-01-29 00:12:00,41.0,40.0,30.06,WSW,253,0.0,5.0,97,0.02,,,0.39,,2013-01-29 05:12:00,
2013-01-29 00:21:00,41.0,40.0,30.07,NE,41,0.0,3.0,97,0.02,,,0.39,,2013-01-29 05:21:00,
2013-01-29 00:31:00,41.0,40.0,30.07,NE,41,0.0,3.0,97,0.02,,,0.39,,2013-01-29 05:31:00,
2013-01-29 00:42:00,41.0,40.0,30.07,NE,41,0.0,3.0,97,0.02,,,0.39,,2013-01-29 05:42:00,
2013-01-29 00:52:00,41.0,40.0,30.07,NE,41,0.0,0.0,97,0.02,,,0.40,,2013-01-29 05:52:00,
2013-01-29 01:01:00,41.0,40.0,30.07,NE,41,0.0,0.0,97,0.02,,,0.40,,2013-01-29 06:01:00,
2013-01-29 01:11:00,41.0,40.0,30.07,NE,41,0.0,0.0,97,0.02,,,0.40,,2013-01-29 06:11:00,
2013-01-29 01:21:00,41.0,40.0,30.07,NE,41,0.0,1.0,97,0.03,,,0.41,,2013-01-29 06:21:00,
2013-01-29 01:31:00,41.0,40.0,30.07,NE,41,0.0,1.0,97,0.03,,,0.41,,2013-01-29 06:31:00,
2013-01-29 01:42:00,41.0,40.0,30.07,NE,41,0.0,1.0,97,0.03,,,0.41,,2013-01-29 06:42:00,
2013-01-29 01:52:00,41.0,40.0,30.08,NE,41,0.0,0.0,97,0.03,,,0.42,,2013-01-29 06:52:00,
2013-01-29 02:01:00,41.0,40.0,30.08,NE,41,0.0,0.0,97,0.03,,,0.42,,2013-01-29 07:01:00,
2013-01-29 02:11:00,41.0,40.0,30.08,NE,41,0.0,0.0,97,0.03,,,0.42,,2013-01-29 07:11:00,
2013-01-29 02:21:00,41.0,40.0,30.09,NE,41,0.0,0.0,97,0.03,,,0.42,,2013-01-29 07:21:00,
2013-01-29 02:31:00,41.0,40.0,30.09,NE,41,0.0,0.0,97,0.03,,,0.42,,2013-01-29 07:31:00,
2013-01-29 02:42:00,41.0,40.0,30.09,NE,41,0.0,0.0,97,0.03,,,0.42,,2013-01-29 07:42:00,
2013-01-29 02:52:00,41.0,40.0,30.10,NE,41,0.0,0.0,97,0.05,,,0.45,,2013-01-29 07:52:00,
2013-01-29 03:01:00,41.0,40.0,30.10,NE,41,0.0,0.0,97,0.05,,,0.45,,2013-01-29 08:01:00,
2013-01-29 03:11:00,41.0,40.0,30.10,NE,41,0.0,0.0,97,0.05,,,0.45,,2013-01-29 08:11:00,
2013-01-29 03:21:00,41.0,40.0,30.11,NE,41,0.0,2.0,97,0.04,,,0.46,,2013-01-29 08:21:00,
2013-01-29 03:31:00,41.0,40.0,30.11,NE,41,0.0,2.0,97,0.04,,,0.46,,2013-01-29 08:31:00,
2013-01-29 03:42:00,41.0,40.0,30.11,NE,41,0.0,2.0,97,0.04,,,0.46,,2013-01-29 08:42:00,
2013-01-29 03:52:00,41.0,40.0,30.11,NNE,17,1.0,4.0,97,0.03,,,0.48,,2013-01-29 08:52:00,
2013-01-29 04:01:00,41.0,40.0,30.11,NNE,17,1.0,4.0,97,0.03,,,0.48,,2013-01-29 09:01:00,
2013-01-29 04:11:00,41.0,40.0,30.11,NNE,17,1.0,4.0,97,0.03,,,0.48,,2013-01-29 09:11:00,
2013-01-29 04:21:00,41.0,40.0,30.12,SSE,155,0.0,3.0,97,0.02,,,0.47,,2013-01-29 09:21:00,
2013-01-29 04:31:00,41.0,40.0,30.12,SSE,155,0.0,3.0,97,0.02,,,0.47,,2013-01-29 09:31:00,
2013-01-29 04:42:00,41.0,40.0,30.12,SSE,155,0.0,3.0,97,0.02,,,0.47,,2013-01-29 09:42:00,
2013-01-29 04:51:00,41.0,40.0,30.12,SSE,155,0.0,0.0,97,0.02,,,0.49,,2013-01-29 09:51:00,
2013-01-29 05:01:00,41.0,40.0,30.12,SSE,155,0.0,0.0,97,0.02,,,0.49,,2013-01-29 10:01:00,
2013-01-29 05:11:00,41.0,40.0,30.12,SSE,155,0.0,0.0,97,0.02,,,0.49,,2013-01-29 10:11:00,
2013-01-29 05:21:00,41.0,40.0,30.13,SSE,155,0.0,0.0,97,0.02,,,0.49,,2013-01-29 10:21:00,
2013-01-29 05:32:00,41.0,40.0,30.13,SSE,155,0.0,0.0,97,0.02,,,0.49,,2013-01-29 10:32:00,
2013-01-29 05:42:00,41.0,40.0,30.13,SSE,155,0.0,0.0,97,0.02,,,0.49,,2013-01-29 10:42:00,
2013-01-29 05:52:00,41.0,40.0,30.14,SSE,155,0.0,0.0,97,0.01,,,0.50,,2013-01-29 10:52:00,
2013-01-29 06:01:00,41.0,40.0,30.14,SSE,155,0.0,0.0,97,0.01,,,0.50,,2013-01-29 11:01:00,
2013-01-29 06:11:00,41.0,40.0,30.14,SSE,155,0.0,0.0,97,0.01,,,0.50,,2013-01-29 11:11:00,
2013-01-29 06:21:00,41.0,41.0,30.14,NNE,16,0.0,3.0,100,0.02,,,0.50,,2013-01-29 11:21:00,
2013-01-29 06:31:00,41.0,41.0,30.14,NNE,16,0.0,3.0,100,0.02,,,0.50,,2013-01-29 11:31:00,
2013-01-29 06:42:00,41.0,41.0,30.14,NNE,16,0.0,3.0,100,0.02,,,0.50,,2013-01-29 11:42:00,
2013-01-29 06:52:00,41.0,40.0,30.15,NNE,16,0.0,1.0,98,0.01,,,0.50,,2013-01-29 11:52:00,
2013-01-29 07:02:00,41.0,40.0,30.15,NNE,16,0.0,1.0,98,0.01,,,0.50,,2013-01-29 12:02:00,
2013-01-29 07:12:00,41.0,40.0,30.15,NNE,16,0.0,1.0,98,0.01,,,0.50,,2013-01-29 12:12:00,
2013-01-29 07:21:00,41.0,40.0,30.16,NNE,16,0.0,0.0,98,0.01,,,0.51,,2013-01-29 12:21:00,
2013-01-29 07:32:00,41.0,40.0,30.16,NNE,16,0.0,0.0,98,0.01,,,0.51,,2013-01-29 12:32:00,
2013-01-29 07:43:00,41.0,40.0,30.16,NNE,16,0.0,0.0,98,0.01,,,0.51,,2013-01-29 12:43:00,
2013-01-29 07:52:00,41.0,40.0,30.16,NNE,16,0.0,1.0,98,0.01,,,0.51,,2013-01-29 12:52:00,
2013-01-29 08:01:00,41.0,40.0,30.16,NNE,16,0.0,1.0,98,0.01,,,0.51,,2013-01-29 13:01:00,
2013-01-29 08:11:00,41.0,40.0,30.16,NNE,16,0.0,1.0,98,0.01,,,0.51,,2013-01-29 13:11:00,
2013-01-29 08:22:00,41.0,40.0,30.16,NNE,16,0.0,2.0,98,0.01,,,0.52,,2013-01-29 13:22:00,
2013-01-29 08:31:00,41.0,40.0,30.16,NNE,16,0.0,2.0,98,0.01,,,0.52,,2013-01-29 13:31:00,
2013-01-29 08:43:00,41.0,40.0,30.16,NNE,16,0.0,2.0,98,0.01,,,0.52,,2013-01-29 13:43:00,
2013-01-29 08:52:00,41.0,40.0,30.18,NNE,16,0.0,0.0,98,0.01,,,0.52,,2013-01-29 13:52:00,
2013-01-29 09:01:00,41.0,40.0,30.18,NNE,16,0.0,0.0,98,0.01,,,0.52,,2013-01-29 14:01:00,
2013-01-29 09:12:00,41.0,40.0,30.19,NNE,16,0.0,0.0,98,0.00,,,0.52,,2013-01-29 14:12:00,
2013-01-29 09:21:00,41.0,40.0,30.19,NNE,16,0.0,0.0,98,0.00,,,0.52,,2013-01-29 14:21:00,
2013-01-29 09:32:00,41.0,40.0,30.19,NNE,16,0.0,0.0,98,0.00,,,0.52,,2013-01-29 14:32:00,
2013-01-29 09:43:00,41.0,40.0,30.19,NNE,16,0.0,0.0,98,0.00,,,0.52,,2013-01-29 14:43:00,
2013-01-29 09:52:00,42.0,41.0,30.20,NNE,16,0.0,0.0,98,0.01,,,0.53,,2013-01-29 14:52:00,
2013-01-29 10:01:00,42.0,41.0,30.20,NNE,16,0.0,0.0,98,0.01,,,0.53,,2013-01-29 15:01:00,
2013-01-29 10:11:00,42.0,41.0,30.20,NNE,16,0.0,0.0,98,0.01,,,0.53,,2013-01-29 15:11:00,
2013-01-29 10:21:00,42.0,41.0,30.21,NNE,16,0.0,0.0,98,0.01,,,0.53,,2013-01-29 15:21:00,
2013-01-29 10:32:00,42.0,41.0,30.21,NNE,16,0.0,0.0,98,0.01,,,0.53,,2013-01-29 15:32:00,
2013-01-29 10:43:00,42.0,41.0,30.21,NNE,16,0.0,0.0,98,0.01,,,0.53,,2013-01-29 15:43:00,
2013-01-29 10:53:00,42.0,41.0,30.22,NNE,16,0.0,0.0,98,0.00,,,0.53,,2013-01-29 15:53:00,
2013-01-29 11:01:00,42.0,41.0,30.22,NNE,16,0.0,0.0,98,0.00,,,0.53,,2013-01-29 16:01:00,
2013-01-29 11:12:00,42.0,41.0,30.22,NNE,16,0.0,0.0,98,0.00,,,0.53,,2013-01-29 16:12:00,
2013-01-29 11:21:00,42.0,41.0,30.24,NNE,16,0.0,0.0,98,0.00,,,0.53,,2013-01-29 16:21:00,
2013-01-29 11:31:00,42.0,41.0,30.24,NNE,16,0.0,0.0,98,0.00,,,0.53,,2013-01-29 16:31:00,
2013-01-29 11:43:00,42.0,41.0,30.24,NNE,16,0.0,0.0,98,0.00,,,0.53,,2013-01-29 16:43:00,
2013-01-29 11:53:00,42.0,41.0,30.25,NNE,16,0.0,0.0,98,0.01,,,0.54,,2013-01-29 16:53:00,
2013-01-29 12:02:00,42.0,41.0,30.25,NNE,16,0.0,0.0,98,0.01,,,0.54,,2013-01-29 17:02:00,
2013-01-29 12:12:00,42.0,41.0,30.25,NNE,16,0.0,0.0,98,0.01,,,0.54,,2013-01-29 17:12:00,
2013-01-29 12:21:00,42.0,41.0,30.26,NNE,16,0.0,0.0,98,0.01,,,0.54,,2013-01-29 17:21:00,
2013-01-29 12:31:00,42.0,41.0,30.26,NNE,16,0.0,0.0,98,0.01,,,0.54,,2013-01-29 17:31:00,
2013-01-29 12:42:00,42.0,41.0,30.26,NNE,16,0.0,0.0,98,0.01,,,0.54,,2013-01-29 17:42:00,
2013-01-29 12:52:00,43.0,42.0,30.27,NNE,16,0.0,0.0,98,0.00,,,0.54,,2013-01-29 17:52:00,
2013-01-29 13:02:00,43.0,42.0,30.27,NNE,16,0.0,0.0,98,0.00,,,0.54,,2013-01-29 18:02:00,
2013-01-29 13:12:00,43.0,42.0,30.27,NNE,16,0.0,0.0,98,0.00,,,0.54,,2013-01-29 18:12:00,
2013-01-29 13:21:00,43.0,42.0,30.28,NNE,16,0.0,0.0,98,0.00,,,0.54,,2013-01-29 18:21:00,
2013-01-29 13:33:00,43.0,42.0,30.28,NNE,16,0.0,0.0,98,0.00,,,0.54,,2013-01-29 18:33:00,
2013-01-29 13:42:00,43.0,42.0,30.28,NNE,16,0.0,0.0,98,0.00,,,0.54,,2013-01-29 18:42:00,
2013-01-29 13:52:00,44.0,43.0,30.29,NNE,16,0.0,0.0,98,0.00,,,0.54,,2013-01-29 18:52:00,
2013-01-29 14:01:00,44.0,43.0,30.29,NNE,16,0.0,0.0,98,0.00,,,0.54,,2013-01-29 19:01:00,
2013-01-29 14:11:00,44.0,43.0,30.29,NNE,16,0.0,0.0,98,0.00,,,0.54,,2013-01-29 19:11:00,
2013-01-29 14:22:00,45.0,44.0,30.30,NNE,16,0.0,0.0,98,0.00,,,0.54,,2013-01-29 19:22:00,
2013-01-29 14:31:00,45.0,44.0,30.30,NNE,16,0.0,0.0,98,0.00,,,0.54,,2013-01-29 19:31:00,
2013-01-29 14:42:00,45.0,44.0,30.30,NNE,16,0.0,0.0,98,0.00,,,0.54,,2013-01-29 19:42:00,
2013-01-29 14:52:00,45.0,44.0,30.31,NNE,16,0.0,0.0,98,0.01,,,0.55,,2013-01-29 19:52:00,
2013-01-29 15:01:00,45.0,44.0,30.31,NNE,16,0.0,0.0,98,0.01,,,0.55,,2013-01-29 20:01:00,
2013-01-29 15:12:00,45.0,44.0,30.31,NNE,16,0.0,0.0,98,0.01,,,0.55,,2013-01-29 20:12:00,
2013-01-29 15:21:00,45.0,44.0,30.31,NNE,16,0.0,2.0,98,0.02,,,0.55,,2013-01-29 20:21:00,
2013-01-29 15:32:00,45.0,44.0,30.31,NNE,16,0.0,2.0,98,0.02,,,0.55,,2013-01-29 20:32:00,
2013-01-29 15:42:00,45.0,44.0,30.31,NNE,16,0.0,2.0,98,0.02,,,0.55,,2013-01-29 20:42:00,
2013-01-29 15:53:00,45.0,44.0,30.31,NNE,16,0.0,0.0,98,0.02,,,0.56,,2013-01-29 20:53:00,
2013-01-29 16:01:00,45.0,44.0,30.31,NNE,16,0.0,0.0,98,0.02,,,0.56,,2013-01-29 21:01:00,
2013-01-29 16:12:00,45.0,44.0,30.31,NNE,16,0.0,0.0,98,0.02,,,0.56,,2013-01-29 21:12:00,
2013-01-29 16:21:00,45.0,44.0,30.31,NNE,16,0.0,1.0,98,0.02,,,0.55,,2013-01-29 21:21:00,
2013-01-29 16:32:00,45.0,44.0,30.31,NNE,16,0.0,1.0,98,0.02,,,0.55,,2013-01-29 21:32:00,
2013-01-29 16:42:00,45.0,44.0,30.31,NNE,16,0.0,1.0,98,0.02,,,0.55,,2013-01-29 21:42:00,
2013-01-29 16:52:00,45.0,44.0,30.32,ENE,76,0.0,2.0,98,0.01,,,0.55,,2013-01-29 21:52:00,
2013-01-29 17:01:00,45.0,44.0,30.32,ENE,76,0.0,2.0,98,0.01,,,0.55,,2013-01-29 22:01:00,
2013-01-29 17:12:00,45.0,44.0,30.32,ENE,76,0.0,2.0,98,0.01,,,0.55,,2013-01-29 22:12:00,
2013-01-29 17:21:00,45.0,44.0,30.32,East,95,0.0,0.0,98,0.02,,,0.54,,2013-01-29 22:21:00,
2013-01-29 17:32:00,45.0,44.0,30.32,East,95,0.0,0.0,98,0.02,,,0.54,,2013-01-29 22:32:00,
2013-01-29 17:42:00,45.0,44.0,30.32,East,95,0.0,0.0,98,0.02,,,0.54,,2013-01-29 22:42:00,
2013-01-29 17:53:00,45.0,44.0,30.32,SE,136,0.0,2.0,98,0.03,,,0.55,,2013-01-29 22:53:00,
2013-01-29 18:01:00,45.0,44.0,30.32,SE,136,0.0,2.0,98,0.03,,,0.55,,2013-01-29 23:01:00,
2013-01-29 18:11:00,45.0,44.0,30.32,SE,136,0.0,2.0,98,0.03,,,0.55,,2013-01-29 23:11:00,
2013-01-29 18:22:00,45.0,44.0,30.32,SE,137,0.0,3.0,98,0.02,,,0.53,,2013-01-29 23:22:00,
2013-01-29 18:32:00,45.0,44.0,30.32,SE,137,0.0,3.0,98,0.02,,,0.53,,2013-01-29 23:32:00,
2013-01-29 18:42:00,45.0,44.0,30.32,SE,137,0.0,3.0,98,0.02,,,0.53,,2013-01-29 23:42:00,
2013-01-29 18:53:00,45.0,44.0,30.33,West,262,0.0,0.0,98,0.02,,,0.54,,2013-01-29 23:53:00,
2013-01-29 19:01:00,45.0,44.0,30.33,West,262,0.0,0.0,98,0.02,,,0.54,,2013-01-30 00:01:00,
2013-01-29 19:11:00,45.0,44.0,30.33,West,262,0.0,0.0,98,0.02,,,0.54,,2013-01-30 00:11:00,
2013-01-29 19:21:00,45.0,44.0,30.33,SSW,192,1.0,4.0,98,0.02,,,0.51,,2013-01-30 00:21:00,
2013-01-29 19:32:00,45.0,44.0,30.33,SSW,192,1.0,4.0,98,0.02,,,0.51,,2013-01-30 00:32:00,
2013-01-29 19:43:00,45.0,44.0,30.33,SSW,192,1.0,4.0,98,0.02,,,0.51,,2013-01-30 00:43:00,
2013-01-29 19:52:00,45.0,44.0,30.35,ENE,69,0.0,4.0,98,0.01,,,0.51,,2013-01-30 00:52:00,
2013-01-29 20:01:00,45.0,44.0,30.35,ENE,69,0.0,4.0,98,0.01,,,0.51,,2013-01-30 01:01:00,
2013-01-29 20:11:00,45.0,44.0,30.35,ENE,69,0.0,4.0,98,0.01,,,0.51,,2013-01-30 01:11:00,
2013-01-29 20:22:00,45.0,44.0,30.35,SW,221,2.0,4.0,98,0.00,,,0.45,,2013-01-30 01:22:00,
2013-01-29 20:31:00,45.0,44.0,30.35,SW,221,2.0,4.0,98,0.00,,,0.45,,2013-01-30 01:31:00,
2013-01-29 20:42:00,45.0,44.0,30.35,SW,221,2.0,4.0,98,0.00,,,0.45,,2013-01-30 01:42:00,
2013-01-29 20:52:00,45.0,44.0,30.35,West,271,0.0,6.0,98,0.01,,,0.46,,2013-01-30 01:52:00,
2013-01-29 21:01:00,45.0,44.0,30.35,West,271,0.0,6.0,98,0.01,,,0.46,,2013-01-30 02:01:00,
2013-01-29 21:12:00,45.0,44.0,30.35,West,271,0.0,6.0,98,0.01,,,0.46,,2013-01-30 02:12:00,
2013-01-29 21:21:00,45.0,44.0,30.34,South,190,0.0,4.0,98,0.01,,,0.42,,2013-01-30 02:21:00,
2013-01-29 21:32:00,45.0,44.0,30.34,South,190,0.0,4.0,98,0.01,,,0.42,,2013-01-30 02:32:00,
2013-01-29 21:42:00,45.0,44.0,30.34,South,190,0.0,4.0,98,0.01,,,0.42,,2013-01-30 02:42:00,
2013-01-29 21:53:00,45.0,44.0,30.34,NE,52,0.0,4.0,98,0.00,,,0.42,,2013-01-30 02:53:00,
2013-01-29 22:02:00,45.0,44.0,30.34,NE,52,0.0,4.0,98,0.00,,,0.42,,2013-01-30 03:02:00,
2013-01-29 22:11:00,45.0,44.0,30.34,NE,52,0.0,4.0,98,0.00,,,0.42,,2013-01-30 03:11:00,
2013-01-29 22:21:00,45.0,44.0,30.34,SSW,202,1.0,5.0,98,0.00,,,0.36,,2013-01-30 03:21:00,
2013-01-29 22:31:00,45.0,44.0,30.34,SSW,202,1.0,5.0,98,0.00,,,0.36,,2013-01-30 03:31:00,
2013-01-29 22:42:00,45.0,44.0,30.34,SSW,202,1.0,5.0,98,0.00,,,0.36,,2013-01-30 03:42:00,
2013-01-29 22:52:00,45.0,44.0,30.37,ENE,74,0.0,4.0,98,0.00,,,0.36,,2013-01-30 03:52:00,
2013-01-29 23:01:00,45.0,44.0,30.37,ENE,74,0.0,4.0,98,0.00,,,0.36,,2013-01-30 04:01:00,
2013-01-29 23:11:00,45.0,44.0,30.37,ENE,74,0.0,4.0,98,0.00,,,0.36,,2013-01-30 04:11:00,
2013-01-29 23:21:00,45.0,44.0,30.35,South,182,2.0,9.0,98,0.00,,,0.33,,2013-01-30 04:21:00,
2013-01-29 23:31:00,45.0,44.0,30.35,South,182,2.0,9.0,98,0.00,,,0.33,,2013-01-30 04:31:00,
2013-01-29 23:42:00,45.0,44.0,30.35,South,182,2.0,9.0,98,0.00,,,0.33,,2013-01-30 04:42:00,
2013-01-29 23:52:00,45.0,44.0,30.35,SSE,154,1.0,7.0,98,0.01,,,0.34,,2013-01-30 04:52:00,